Weather History for Reno - Stead, NV

Change the Weather History Date:

Sunday, July 28, 2013

  Actual Average (KRNO) Record (KRNO)
Temperature  
Mean Temperature 73 °F 76 °F  
Max Temperature 89 °F 94 °F 102 °F (1971)
Min Temperature 57 °F 59 °F 38 °F (1965)
Degree Days  
Heating Degree Days 0 0  
Month to date heating degree days 0  
Since 1 June heating degree days 56  
Since 1 July heating degree days 0  
Cooling Degree Days 8 11  
Month to date cooling degree days 281  
Year to date cooling degree days 454  
Since 1 June cooling degree days 417  
Growing Degree Days 23 (Base 50)    
Moisture  
Dew Point 38 °F    
Average Humidity 30    
Maximum Humidity 55    
Minimum Humidity 13    
Precipitation  
Precipitation 0.00 in 0.01 in 0.54 in (1908)
Month to date precipitation 0.16  
Year to date precipitation 4.44  
Snow  
Snow 0.00 in 0.00 in 0.00 in ()
Month to date snowfall 0.0  
Since 1 June snowfall T  
Since 1 July snowfall 0.0  
Snow Depth -    
Sea Level Pressure  
Sea Level Pressure 30.02 in    
Wind  
Wind Speed 9 mph (WNW)    
Max Wind Speed 23 mph    
Max Gust Speed 32 mph    
Visibility 10 miles    
Events      
T = Trace of Precipitation, MM = Missing Value Source: NWS Daily Summary

Daily Weather History Graph

Daily Weather History Graph

Search for Another Location

Airport:

Trip Planner

Search our weather history database for the weather conditions in past years. The results will help you decide how hot, cold, wet, or windy it might be!

Date:

Astronomy

Jul. 28, 2013 Rise Set
Actual Time 5:55 AM PDT 8:16 PM PDT
Civil Twilight 5:24 AM PDT 8:46 PM PDT
Nautical Twilight 4:47 AM PDT 9:23 PM PDT
Astronomical Twilight 4:05 AM PDT 10:05 PM PDT
Moon 11:42 PM PDT (7/28) 12:41 PM PDT (7/28)
Length of Visible Light 15h 21m
Length of Day
14h 20m
Waning Gibbous, 60% of the Moon is Illuminated
Jul 28
Waning Gibbous
Jul 29
Last Quarter
Aug 6
New
Aug 14
First Quarter
Aug 20
Full

Hourly Weather History & Observations

Time (PDT) Temp. Dew Point Humidity Pressure Visibility Wind Dir Wind Speed Gust Speed Precip Events Conditions
12:15 AM 69.8 °F 37.4 °F 31% 30.08 in 10.0 mi West 3.5 mph - N/A   Clear
12:35 AM 69.8 °F 39.2 °F 33% 30.08 in 10.0 mi WNW 4.6 mph - N/A   Scattered Clouds
12:55 AM 68.0 °F 39.2 °F 35% 30.07 in 10.0 mi WNW 6.9 mph - N/A   Partly Cloudy
1:15 AM 68.0 °F 39.2 °F 35% 30.07 in 10.0 mi West 12.7 mph - N/A   Clear
1:35 AM 68.0 °F 41.0 °F 37% 30.06 in 10.0 mi West 13.8 mph - N/A   Clear
1:55 AM 66.2 °F 41.0 °F 40% 30.06 in 10.0 mi North 4.6 mph - N/A   Clear
2:15 AM 64.4 °F 41.0 °F 42% 30.06 in 10.0 mi WNW 8.1 mph - N/A   Clear
2:35 AM 62.6 °F 41.0 °F 45% 30.06 in 10.0 mi NW 5.8 mph - N/A   Clear
2:55 AM 66.2 °F 41.0 °F 40% 30.06 in 10.0 mi North 5.8 mph - N/A   Clear
3:15 AM 64.4 °F 41.0 °F 42% 30.06 in 10.0 mi NW 8.1 mph - N/A   Clear
3:35 AM 62.6 °F 41.0 °F 45% 30.06 in 10.0 mi NNW 6.9 mph - N/A   Partly Cloudy
3:55 AM 60.8 °F 41.0 °F 48% 30.05 in 10.0 mi NW 10.4 mph - N/A   Partly Cloudy
4:15 AM 62.6 °F 41.0 °F 45% 30.05 in 10.0 mi NW 9.2 mph - N/A   Clear
4:35 AM 60.8 °F 41.0 °F 48% 30.05 in 10.0 mi NW 8.1 mph - N/A   Clear
4:55 AM 60.8 °F 41.0 °F 48% 30.05 in 10.0 mi NW 6.9 mph - N/A   Clear
5:15 AM 59.0 °F 41.0 °F 51% 30.05 in 10.0 mi NW 6.9 mph - N/A   Clear
5:35 AM 59.0 °F 41.0 °F 51% 30.05 in 10.0 mi North 5.8 mph - N/A   Clear
5:55 AM 57.2 °F 41.0 °F 55% 30.05 in 10.0 mi NNW 4.6 mph - N/A   Clear
6:15 AM 57.2 °F 41.0 °F 55% 30.06 in 10.0 mi Calm Calm - N/A   Clear
6:35 AM 59.0 °F 42.8 °F 55% 30.06 in 10.0 mi North 4.6 mph - N/A   Clear
6:55 AM 60.8 °F 44.6 °F 55% 30.06 in 10.0 mi Calm Calm - N/A   Clear
7:15 AM 64.4 °F 44.6 °F 49% 30.07 in 10.0 mi Calm Calm - N/A   Clear
7:35 AM 66.2 °F 44.6 °F 46% 30.07 in 10.0 mi North 3.5 mph - N/A   Clear
7:55 AM 68.0 °F 44.6 °F 43% 30.06 in 10.0 mi Calm Calm - N/A   Clear
8:15 AM 69.8 °F 44.6 °F 40% 30.07 in 10.0 mi Calm Calm - N/A   Clear
8:35 AM 71.6 °F 44.6 °F 38% 30.07 in 10.0 mi Calm Calm - N/A   Clear
8:55 AM 73.4 °F 44.6 °F 36% 30.06 in 10.0 mi West 3.5 mph - N/A   Clear
9:15 AM 75.2 °F 44.6 °F 34% 30.06 in 10.0 mi South 5.8 mph - N/A   Clear
9:35 AM 75.2 °F 44.6 °F 34% 30.05 in 10.0 mi South 4.6 mph - N/A   Clear
9:55 AM 75.2 °F 44.6 °F 34% 30.05 in 10.0 mi South 4.6 mph - N/A   Clear
10:15 AM 77.0 °F 44.6 °F 32% 30.05 in 10.0 mi ESE 3.5 mph - N/A   Clear
10:35 AM 78.8 °F 42.8 °F 28% 30.04 in 10.0 mi Calm Calm - N/A   Clear
10:55 AM 78.8 °F 42.8 °F 28% 30.04 in 10.0 mi South 4.6 mph - N/A   Clear
11:15 AM 80.6 °F 42.8 °F 26% 30.04 in 10.0 mi ESE 8.1 mph - N/A   Clear
11:35 AM 82.4 °F 39.2 °F 21% 30.03 in 10.0 mi South 12.7 mph - N/A   Clear
11:55 AM 84.2 °F 35.6 °F 18% 30.02 in 10.0 mi WSW 15.0 mph 20.7 mph N/A   Clear
12:15 PM 84.2 °F 35.6 °F 18% 30.02 in 10.0 mi WSW 8.1 mph - N/A   Clear
12:35 PM 86.0 °F 33.8 °F 15% 30.01 in 10.0 mi WSW 16.1 mph 20.7 mph N/A   Clear
12:55 PM 86.0 °F 33.8 °F 15% 30.00 in 10.0 mi SW 11.5 mph 23.0 mph N/A   Clear
1:15 PM 86.0 °F 33.8 °F 15% 29.99 in 10.0 mi West 18.4 mph 21.9 mph N/A   Clear
1:35 PM 86.0 °F 33.8 °F 15% 29.99 in 10.0 mi WNW 10.4 mph 17.3 mph N/A   Clear
1:55 PM 89.6 °F 32.0 °F 13% 29.98 in 10.0 mi West 23.0 mph - N/A   Clear
2:15 PM 89.6 °F 33.8 °F 14% 29.97 in 10.0 mi West 17.3 mph 25.3 mph N/A   Partly Cloudy
2:35 PM 87.8 °F 33.8 °F 15% 29.97 in 10.0 mi West 21.9 mph 28.8 mph N/A   Clear
2:55 PM 89.6 °F 32.0 °F 13% 29.96 in 10.0 mi West 18.4 mph 31.1 mph N/A   Clear
3:15 PM 89.6 °F 32.0 °F 13% 29.96 in 10.0 mi West 21.9 mph 31.1 mph N/A   Clear
3:35 PM 87.8 °F 32.0 °F 14% 29.95 in 10.0 mi West 23.0 mph 28.8 mph N/A   Clear
3:55 PM 87.8 °F 33.8 °F 15% 29.95 in 10.0 mi West 16.1 mph 32.2 mph N/A   Clear
4:15 PM 87.8 °F 33.8 °F 15% 29.95 in 10.0 mi WNW 19.6 mph 26.5 mph N/A   Clear
4:35 PM 86.0 °F 35.6 °F 17% 29.95 in 10.0 mi West 20.7 mph 32.2 mph N/A   Clear
4:55 PM 86.0 °F 33.8 °F 15% 29.95 in 10.0 mi West 18.4 mph 28.8 mph N/A   Clear
5:15 PM 86.0 °F 35.6 °F 17% 29.95 in 10.0 mi West 16.1 mph 26.5 mph N/A   Clear
5:35 PM 86.0 °F 35.6 °F 17% 29.95 in 10.0 mi West 19.6 mph 28.8 mph N/A   Clear
5:55 PM 84.2 °F 35.6 °F 18% 29.95 in 10.0 mi WNW 21.9 mph 29.9 mph N/A   Clear
6:15 PM 84.2 °F 35.6 °F 18% 29.95 in 10.0 mi WNW 20.7 mph 28.8 mph N/A   Clear
6:35 PM 82.4 °F 35.6 °F 19% 29.96 in 10.0 mi West 19.6 mph 27.6 mph N/A   Clear
6:55 PM 82.4 °F 33.8 °F 17% 29.96 in 10.0 mi WNW 18.4 mph 27.6 mph N/A   Clear
7:15 PM 80.6 °F 33.8 °F 18% 29.97 in 10.0 mi WNW 19.6 mph 24.2 mph N/A   Clear
7:35 PM 80.6 °F 35.6 °F 20% 29.97 in 10.0 mi WNW 18.4 mph - N/A   Clear
7:55 PM 78.8 °F 35.6 °F 21% 29.98 in 10.0 mi WNW 15.0 mph 18.4 mph N/A   Clear
8:15 PM 77.0 °F 35.6 °F 22% 29.98 in 10.0 mi West 13.8 mph - N/A   Clear
8:35 PM 75.2 °F 35.6 °F 24% 29.99 in 10.0 mi WNW 8.1 mph - N/A   Clear
8:55 PM 73.4 °F 35.6 °F 25% 29.99 in 10.0 mi WNW 4.6 mph - N/A   Clear
9:15 PM 71.6 °F 35.6 °F 27% 30.00 in 10.0 mi WSW 5.8 mph - N/A   Clear
9:35 PM 71.6 °F 35.6 °F 27% 30.01 in 10.0 mi WNW 4.6 mph - N/A   Clear
9:55 PM 69.8 °F 35.6 °F 28% 30.02 in 10.0 mi WNW 8.1 mph - N/A   Clear
10:15 PM 69.8 °F 35.6 °F 28% 30.02 in 10.0 mi WSW 11.5 mph - N/A   Clear
10:35 PM 68.0 °F 35.6 °F 30% 30.02 in 10.0 mi West 10.4 mph - N/A   Clear
10:55 PM 68.0 °F 37.4 °F 33% 30.02 in 10.0 mi West 12.7 mph - N/A   Clear
11:15 PM 66.2 °F 37.4 °F 35% 30.02 in 10.0 mi WNW 8.1 mph - N/A   Clear
11:35 PM 64.4 °F 37.4 °F 37% 30.02 in 10.0 mi NNW 6.9 mph - N/A   Clear
11:55 PM 64.4 °F 37.4 °F 37% 30.02 in 10.0 mi WNW 12.7 mph - N/A   Clear